GORIZONT 22

Satellite information

Favourite Embed

Satellite Type and Status

PAYLOADIN ORBIT

Key statistics

Satellite GORIZONT 22 at a glance.

Uptime

12809

Days in orbit

Revolutions

≈ 1.0

Per day

Orbit

OTHER

Other

Inclination

12.9

Latest

Satellite identification and parameters

Extended collection of information and parameters for GORIZONT 22.

Object identification

Identified? True

Debris? False

Object name: GORIZONT 22

International designator: 1990-102A

Object number (NORAD): 20953

Object ID (CCSDS): 20953

Country: COMMONWEALTH OF INDEPENDENT STATES (CIS)

Current information (Y/N): Y

RCS size: LARGE

Orbital parameters

Period: 1435.148 minutes

Inclination: 12.8962 deg

SMA: 42146.148 km

Apoapsis: 35787.324 km

Periapsis: 35748.703 km

RAAN: 338.5236 deg

Eccentricy: 0.00045818

Argument of periapsis: 329.8215 deg

Mean anomaly: 212.844 deg

Mean motion: 1.00338111 rev/day

Mean motion (dot): -0.00000354 rev/day2

B* drag term: 0.0 1/REarth

Two-line elements (TLE)

Creation date: Dec. 17, 2025, 2:25 a.m.

Reference frame: TEME

Reference center: EARTH

Epoch: Dec. 16, 2025, 8:47 p.m. UTC

TLE line 0: 0 GORIZONT 22

TLE line 1: 1 20953U 90102A 25350.86636588 -.00000354 00000-0 00000-0 0 9999

TLE line 2: 2 20953 12.8962 338.5236 0004582 329.8215 212.8440 1.00338111128547

Live tracking on map

Real-time ground track for satellite GORIZONT 22.

In-orbit conjunctions

A list of the most updated potential collisions computed for object GORIZONT 22.

Target Orbit TCA Probability of collision Miss distance Type
COSMOS 1540 OTHER 2025-07-26 12:49:43 TBA 4890.0 (m) PAYLOAD

Associated space launch

Geostationary communications satellite

GORIZONT 22 was lifted into orbit during the mission ‘Proton | Gorizont 22’, on board a Proton space rocket.

The launch took place on Nov. 23, 1990, 1:22 p.m. from 200/39 (200L).

For more information about the launch, click the button.

Launch to space Proton | Gorizont 22
Proton | Gorizont 22

Agency: N/A

Status: Launch Successful

Launch date: Nov. 23, 1990, 1:22 p.m. UTC

Rocket: Proton

Launch pad: 200/39 (200L)

Location: Baikonur Cosmodrome, Republic of Kazakhstan

...

Latest news about this satellite

There are no fresh news available about this satellite. Check back as we update our databases every day.


Newsletter sign-up

Weekly statistics, charts and insights to help you stay on top of the space industry.